QPF
0.00 0.00 0.00 0.00 0.00 0.00 0.00 0.00 0.00 0.00 0.00 0.00 0.00 0.00 0.00 0.00 0.00 0.00 0.00 0.00 0.00 0.00 0.00 0.00 0.00 0.00 0.00 0.00 0.00 0.00 0.00 0.00 0.00 0.00 0.00 0.00 0.00 0.00 0.00 0.00 0.00 0.00 0.00 0.00 0.00
0.00 0.00 0.00 0.00 0.00 0.00 0.00 0.00 0.00 0.00 0.00 0.00 0.00 0.00 0.00 0.00 0.00 0.00 0.00 0.00 0.00 0.00 0.00 0.00 0.00 0.00 0.00 0.00 0.00 0.00 0.00 0.00 0.00 0.00 0.00 0.00 0.00 0.00 0.00 0.00 0.00 0.00 0.00 0.00 0.00
0.00 0.00 0.00 0.00 0.00 0.00 0.00 0.00 0.00 0.00 0.00 0.00 0.00 0.00 0.00 0.00 0.00 0.00 0.00 0.00 0.00 0.00 0.00 0.00 0.00 0.00 0.00 0.00 0.00 0.00 0.00 0.00 0.00 0.00 0.00 0.00 0.00 0.00 0.00 0.00 0.00 0.00 0.00 0.00 0.00
0.00 0.00 0.00 0.00 0.00 0.00 0.00 0.00 0.00 0.00 0.00 0.00 0.00 0.00 0.00 0.00 0.00 0.00 0.00 0.00 0.00 0.00 0.00 0.00 0.00 0.00 0.00 0.00 0.00 0.00 0.00 0.00 0.00 0.00 0.00 0.00 0.00 0.00 0.00 0.00 0.00 0.00 0.00 0.00 0.00
0.00 0.00 0.00 0.00 0.00 0.00 0.00 0.00 0.00 0.00 0.00 0.00 0.00 0.00 0.00 0.00 0.00 0.00 0.00 0.00 0.00 0.00 0.00 0.00 0.00 0.00 0.00 0.00 0.00 0.00 0.00 0.00 0.00 0.00 0.00 0.00 0.00 0.02 0.00 0.00 0.00 0.00 0.00 0.00 0.00
0.00 0.00 0.00 0.00 0.00 0.00 0.00 0.00 0.00 0.00 0.00 0.00 0.00 0.00 0.00 0.00 0.00 0.00 0.00 0.00 0.00 0.00 0.00 0.00 0.00 0.00 0.00 0.00 0.00 0.00 0.00 0.00 0.00 0.00 0.00 0.00 0.00 0.00 0.01 0.00 0.00 0.00 0.00 0.00 0.00
0.00 0.00 0.00 0.00 0.00 0.00 0.00 0.00 0.00 0.00 0.00 0.00 0.00 0.00 0.00 0.00 0.00 0.00 0.00 0.00 0.00 0.00 0.00 0.00 0.00 0.00 0.00 0.00 0.00 0.00 0.00 0.00 0.00 0.00 0.00 0.00 0.00 0.01 0.04 0.02 0.00 0.00 0.00 0.00 0.00
0.00 0.00 0.00 0.00 0.00 0.00 0.00 0.00 0.00 0.00 0.00 0.00 0.00 0.00 0.00 0.00 0.00 0.00 0.00 0.00 0.00 0.00 0.00 0.00 0.00 0.00 0.00 0.00 0.00 0.00 0.00 0.00 0.00 0.00 0.00 0.00 0.00 0.01 0.05 0.04 0.00 0.00 0.00 0.00 0.00
0.00 0.00 0.00 0.00 0.00 0.00 0.00 0.00 0.00 0.00 0.00 0.00 0.00 0.00 0.00 0.00 0.00 0.00 0.00 0.00 0.00 0.00 0.00 0.00 0.00 0.00 0.00 0.00 0.00 0.00 0.00 0.00 0.00 0.00 0.00 0.00 0.00 0.00 0.02 0.02 0.01 0.00 0.00 0.00 0.00
0.00 0.00 0.00 0.00 0.00 0.00 0.00 0.00 0.00 0.00 0.00 0.00 0.00 0.00 0.00 0.00 0.00 0.00 0.00 0.00 0.00 0.00 0.00 0.00 0.00 0.00 0.00 0.00 0.00 0.00 0.00 0.00 0.00 0.00 0.00 0.00 0.00 0.00 0.00 0.01 0.00 0.00 0.00 0.00 0.00
0.00 0.00 0.00 0.00 0.00 0.00 0.00 0.00 0.00 0.00 0.00 0.00 0.00 0.00 0.00 0.00 0.00 0.00 0.00 0.00 0.00 0.00 0.00 0.00 0.00 0.00 0.00 0.00 0.00 0.00 0.00 0.00 0.00 0.00 0.00 0.00 0.00 0.00 0.00 0.00 0.00 0.00 0.00 0.00 0.00
0.00 0.00 0.00 0.00 0.00 0.00 0.00 0.00 0.00 0.00 0.00 0.00 0.00 0.00 0.00 0.00 0.00 0.00 0.00 0.00 0.00 0.00 0.00 0.00 0.00 0.00 0.00 0.00 0.00 0.00 0.00 0.00 0.00 0.00 0.00 0.00 0.00 0.00 0.00 0.00 0.00 0.00 0.00 0.00 0.00
0.00 0.00 0.00 0.00 0.00 0.00 0.00 0.00 0.00 0.00 0.00 0.00 0.00 0.00 0.00 0.00 0.00 0.00 0.00 0.00 0.00 0.00 0.00 0.00 0.00 0.00 0.00 0.00 0.00 0.00 0.00 0.00 0.00 0.00 0.00 0.00 0.00 0.00 0.00 0.00 0.00 0.00 0.00 0.00 0.00
0.00 0.00 0.00 0.00 0.00 0.00 0.00 0.00 0.00 0.00 0.00 0.00 0.00 0.00 0.00 0.00 0.00 0.00 0.00 0.00 0.00 0.00 0.00 0.00 0.00 0.00 0.00 0.00 0.00 0.00 0.00 0.00 0.00 0.00 0.00 0.00 0.00 0.00 0.00 0.00 0.00 0.00 0.00 0.00 0.00
0.00 0.00 0.00 0.00 0.00 0.00 0.00 0.00 0.00 0.00 0.00 0.00 0.00 0.00 0.00 0.00 0.00 0.00 0.00 0.00 0.00 0.00 0.00 0.00 0.00 0.00 0.00 0.00 0.00 0.00 0.00 0.00 0.00 0.00 0.00 0.00 0.00 0.00 0.00 0.00 0.00 0.00 0.00 0.00 0.00
0.00 0.00 0.00 0.00 0.00 0.00 0.00 0.00 0.00 0.00 0.00 0.00 0.00 0.00 0.00 0.00 0.00 0.00 0.00 0.00 0.00 0.00 0.00 0.00 0.00 0.00 0.00 0.00 0.00 0.00 0.00 0.00 0.00 0.00 0.00 0.00 0.00 0.00 0.00 0.00 0.00 0.00 0.00 0.00 0.00
0.00 0.00 0.00 0.00 0.00 0.00 0.00 0.00 0.00 0.00 0.00 0.00 0.00 0.00 0.00 0.00 0.00 0.00 0.00 0.00 0.00 0.00 0.00 0.00 0.00 0.00 0.00 0.00 0.00 0.00 0.00 0.00 0.00 0.00 0.00 0.00 0.00 0.00 0.00 0.00 0.00 0.00 0.00 0.00 0.00
0.00 0.00 0.00 0.00 0.00 0.00 0.00 0.00 0.00 0.00 0.00 0.00 0.00 0.00 0.00 0.00 0.00 0.00 0.00 0.00 0.00 0.00 0.00 0.00 0.00 0.00 0.00 0.00 0.00 0.00 0.00 0.00 0.00 0.00 0.00 0.00 0.00 0.00 0.00 0.00 0.00 0.00 0.00 0.00 0.00
0.00 0.00 0.00 0.00 0.00 0.00 0.00 0.00 0.00 0.00 0.00 0.00 0.00 0.00 0.00 0.00 0.00 0.00 0.00 0.00 0.00 0.00 0.00 0.00 0.00 0.00 0.00 0.00 0.00 0.00 0.00 0.00 0.00 0.00 0.00 0.00 0.00 0.00 0.00 0.00 0.00 0.00 0.00 0.00 0.00
0.00 0.00 0.00 0.00 0.00 0.00 0.00 0.00 0.00 0.00 0.00 0.00 0.00 0.00 0.00 0.00 0.00 0.00 0.00 0.00 0.00 0.00 0.00 0.00 0.00 0.00 0.00 0.00 0.00 0.00 0.00 0.00 0.00 0.00 0.00 0.00 0.00 0.00 0.00 0.00 0.00 0.00 0.00 0.00 0.00
0.00 0.00 0.00 0.00 0.00 0.00 0.00 0.00 0.00 0.00 0.00 0.00 0.00 0.00 0.00 0.00 0.00 0.00 0.00 0.00 0.00 0.00 0.00 0.00 0.00 0.00 0.00 0.00 0.00 0.00 0.00 0.00 0.00 0.00 0.00 0.00 0.00 0.00 0.00 0.00 0.00 0.00 0.00 0.00 0.00
0.00 0.00 0.00 0.00 0.00 0.00 0.00 0.00 0.00 0.00 0.00 0.00 0.00 0.00 0.00 0.00 0.00 0.00 0.00 0.00 0.00 0.00 0.00 0.00 0.00 0.00 0.00 0.00 0.00 0.00 0.00 0.00 0.00 0.00 0.00 0.00 0.00 0.00 0.00 0.00 0.00 0.00 0.00 0.00 0.00
0.00 0.00 0.00 0.00 0.00 0.00 0.00 0.00 0.00 0.00 0.00 0.00 0.00 0.00 0.00 0.00 0.00 0.00 0.00 0.00 0.00 0.00 0.00 0.00 0.00 0.00 0.00 0.00 0.00 0.00 0.00 0.00 0.00 0.00 0.00 0.00 0.00 0.00 0.00 0.00 0.00 0.00 0.00 0.00 0.00
0.00 0.00 0.00 0.00 0.00 0.00 0.00 0.00 0.00 0.00 0.00 0.00 0.00 0.00 0.00 0.00 0.00 0.00 0.00 0.00 0.00 0.00 0.00 0.00 0.00 0.00 0.00 0.00 0.00 0.00 0.00 0.00 0.00 0.00 0.00 0.00 0.00 0.00 0.00 0.01 0.01 0.00 0.00 0.00 0.00
0.00 0.00 0.00 0.00 0.00 0.00 0.00 0.00 0.00 0.00 0.00 0.00 0.00 0.00 0.00 0.00 0.00 0.00 0.00 0.00 0.00 0.00 0.00 0.00 0.00 0.00 0.00 0.00 0.00 0.00 0.00 0.00 0.00 0.00 0.00 0.00 0.00 0.02 0.02 0.06 0.08 0.03 0.00 0.00 0.00
0.00 0.00 0.00 0.00 0.00 0.00 0.00 0.00 0.00 0.00 0.00 0.00 0.00 0.00 0.00 0.00 0.00 0.00 0.00 0.00 0.00 0.00 0.00 0.00 0.00 0.00 0.00 0.00 0.00 0.00 0.00 0.00 0.00 0.00 0.00 0.00 0.00 0.00 0.01 0.02 0.03 0.01 0.00 0.00 0.00
0.00 0.00 0.00 0.00 0.00 0.00 0.00 0.00 0.00 0.00 0.00 0.00 0.00 0.00 0.00 0.00 0.00 0.00 0.00 0.00 0.00 0.00 0.00 0.00 0.00 0.00 0.00 0.00 0.00 0.00 0.00 0.00 0.00 0.00 0.00 0.00 0.00 0.00 0.00 0.00 0.00 0.00 0.00 0.00 0.00
MSLP
1017.86 1017.52 1017.22 1016.76 1016.30 1015.88 1015.44 1015.08 1014.56 1014.01 1013.49 1012.94 1012.26 1011.88 1011.53 1010.92 1009.82 1009.04 1007.14 1006.42 1006.44 1006.29 1006.50 1005.44 1004.94 1004.16 1003.65 1003.61 1003.70 1004.71 1005.51 1005.04 1003.57 1001.35 999.90 1000.15 1000.71 1001.27 1001.80 1002.63 1003.44 1003.64 1004.64 1005.88 1007.24
1018.02 1017.68 1017.33 1016.94 1016.40 1015.97 1015.53 1015.02 1014.49 1013.98 1013.34 1012.74 1012.07 1011.70 1011.48 1011.02 1009.18 1007.10 1006.28 1006.01 1006.12 1006.32 1005.95 1004.74 1003.77 1003.46 1003.19 1002.64 1003.32 1004.40 1005.16 1004.08 1001.91 1000.42 1000.00 1000.16 1000.48 1000.87 1001.60 1002.66 1003.86 1004.83 1005.68 1006.56 1007.36
1018.14 1017.82 1017.55 1017.04 1016.51 1016.04 1015.48 1014.92 1014.37 1013.88 1013.10 1012.46 1011.80 1011.32 1011.06 1010.64 1008.17 1005.91 1005.96 1005.93 1005.88 1006.08 1005.57 1004.40 1003.25 1002.68 1002.27 1001.72 1004.21 1005.41 1004.11 1002.76 1001.19 1000.03 1000.28 1001.68 1000.96 1000.88 1002.02 1002.16 1003.42 1004.75 1005.85 1006.66 1007.37
1018.16 1017.71 1017.38 1016.88 1016.46 1015.90 1015.40 1014.82 1014.16 1013.52 1012.93 1012.18 1011.44 1010.87 1010.63 1009.50 1006.60 1005.52 1005.77 1005.76 1005.72 1005.83 1005.14 1003.92 1003.06 1002.37 1001.68 1001.01 1001.41 1002.53 1000.93 1000.09 999.66 999.82 999.84 1001.10 1000.92 1000.86 1001.58 1002.24 1003.18 1004.59 1005.66 1006.48 1007.18
1018.15 1017.73 1017.24 1016.65 1016.08 1015.63 1015.13 1014.46 1014.02 1013.44 1012.82 1012.12 1011.52 1011.00 1009.52 1007.66 1005.08 1005.40 1005.69 1005.65 1005.53 1005.20 1004.38 1003.23 1002.39 1001.88 1001.24 1000.50 1000.37 999.49 999.29 999.38 999.34 999.67 999.47 1000.10 1001.05 1001.64 1002.18 1002.76 1003.72 1004.58 1005.47 1006.26 1006.86
1018.16 1017.63 1017.09 1016.46 1015.92 1015.44 1014.90 1014.23 1013.63 1013.08 1012.42 1011.91 1011.58 1011.34 1009.69 1005.96 1003.75 1004.50 1004.97 1004.81 1004.73 1004.00 1003.14 1002.57 1001.76 1001.20 1000.75 1000.36 999.93 999.49 999.38 998.96 999.04 999.34 1000.00 1000.72 1003.30 1004.34 1005.03 1003.36 1004.20 1004.64 1005.12 1005.78 1006.43
1018.10 1017.65 1017.02 1016.53 1015.87 1015.06 1014.42 1013.81 1013.12 1012.55 1011.87 1011.53 1011.43 1011.06 1007.89 1004.69 1003.48 1003.36 1003.86 1003.70 1003.16 1003.11 1002.35 1001.94 1001.59 1001.35 1000.63 999.68 999.04 999.44 999.40 999.22 999.12 999.18 999.69 1001.42 1005.00 1007.87 1007.64 1006.25 1004.42 1004.64 1004.89 1005.38 1006.02
1018.13 1017.54 1017.03 1016.48 1015.70 1014.88 1014.12 1013.34 1012.70 1012.08 1011.47 1011.20 1011.38 1010.19 1006.06 1003.24 1003.38 1003.30 1003.49 1002.95 1003.00 1002.95 1002.68 1002.09 1002.13 1001.84 1000.97 999.98 999.46 999.56 999.62 1000.63 1000.14 999.63 999.33 1000.25 1004.53 1004.68 1005.41 1005.56 1004.18 1004.29 1004.62 1005.21 1005.85
1018.18 1017.52 1016.86 1016.12 1015.45 1014.74 1013.72 1012.71 1011.94 1011.45 1011.14 1011.00 1010.46 1008.50 1004.62 1003.74 1003.34 1003.03 1002.79 1002.44 1002.04 1002.40 1002.34 1002.32 1002.44 1001.82 1000.87 1000.18 999.75 999.51 999.94 1001.16 1001.65 1000.35 999.60 999.99 1003.14 1003.81 1004.70 1004.56 1003.12 1003.43 1004.14 1004.97 1005.75
1018.13 1017.46 1016.85 1016.08 1015.39 1014.58 1013.34 1011.31 1010.41 1010.76 1010.09 1009.83 1008.63 1007.14 1003.98 1002.70 1002.19 1002.50 1002.35 1002.43 1002.29 1002.00 1001.97 1002.10 1002.15 1001.59 1000.70 999.97 999.54 1001.31 1002.31 1002.95 1002.34 1000.68 999.91 1000.00 1000.74 1001.46 1002.05 1002.51 1001.49 1002.02 1003.07 1004.27 1005.34
1018.01 1017.37 1016.61 1015.94 1015.28 1014.76 1013.20 1010.13 1009.80 1009.90 1008.60 1006.38 1005.06 1003.89 1002.60 1002.65 1002.78 1002.62 1002.28 1002.28 1002.44 1002.18 1001.62 1001.36 1001.30 1000.68 1000.11 999.62 999.30 1001.15 1003.09 1003.72 1002.03 1000.64 999.95 999.71 999.24 999.15 999.62 999.85 999.97 1000.40 1000.81 1002.36 1004.01
1018.12 1017.44 1016.61 1015.84 1015.02 1014.23 1014.14 1010.76 1008.84 1008.68 1006.94 1004.87 1003.66 1002.76 1002.24 1002.63 1002.13 1001.94 1001.81 1002.12 1001.99 1001.73 1001.33 1000.92 1000.19 1000.02 999.78 999.29 999.01 999.25 1000.57 1000.59 1000.25 999.37 999.41 999.00 998.51 998.40 998.68 999.06 999.02 999.14 997.67 1001.16 1003.00
1018.05 1017.32 1016.49 1015.56 1014.48 1013.08 1011.27 1009.05 1008.52 1007.89 1006.49 1003.76 1002.44 1001.74 1001.79 1002.24 1001.86 1001.13 1001.37 1001.55 1001.34 1001.21 1000.86 1000.23 999.57 999.34 999.48 998.97 998.88 999.13 999.11 998.98 998.82 998.21 998.63 998.82 998.54 998.45 998.69 998.76 998.95 999.22 999.89 1000.78 1002.13
1018.06 1017.30 1016.56 1015.54 1014.47 1011.36 1009.32 1008.59 1008.15 1007.84 1005.80 1002.10 1000.91 1000.58 1001.02 1001.21 1001.14 1001.03 1000.60 1001.22 1000.96 1000.72 1000.40 999.97 999.46 999.14 998.90 998.98 999.13 998.87 999.05 998.99 998.82 998.48 998.52 998.76 999.20 998.76 999.79 1000.00 998.86 999.11 999.22 1000.13 1001.46
1017.99 1017.41 1016.65 1016.86 1014.50 1011.14 1009.04 1008.47 1008.50 1007.68 1004.17 999.87 999.86 1000.10 1000.39 1000.76 999.94 1000.32 1000.47 1000.75 1000.56 1000.38 1000.42 999.64 999.44 999.16 999.29 999.21 999.22 999.10 998.91 998.87 998.53 998.89 999.25 999.37 1000.19 998.86 1000.18 1000.96 998.49 998.62 999.22 999.80 1001.10
1017.88 1017.32 1016.60 1013.89 1014.20 1010.84 1009.46 1008.88 1008.34 1006.80 1002.74 1000.19 1000.04 1000.40 1000.48 1000.30 1000.25 999.66 1000.32 1000.78 1000.52 1000.45 999.92 999.84 999.22 999.04 998.90 999.13 998.97 999.15 999.18 999.25 999.15 999.38 999.40 999.43 999.26 999.70 1001.13 1000.07 998.58 998.70 999.55 999.96 1001.06
1017.32 1016.98 1016.84 1014.33 1011.10 1009.64 1009.61 1008.97 1007.38 1004.63 1002.18 1000.14 999.71 999.76 999.93 999.73 999.97 999.76 1000.14 1000.44 1000.39 1000.34 1000.00 999.68 999.38 999.24 999.14 998.97 998.84 999.16 999.16 999.55 999.67 999.48 999.13 999.11 998.84 998.50 998.55 998.86 998.88 998.92 999.52 1000.16 1001.04
1016.62 1016.28 1013.98 1012.68 1010.64 1010.25 1009.83 1008.62 1006.09 1003.40 1001.84 999.72 999.36 998.88 999.10 999.26 999.40 999.66 999.81 999.93 1000.18 999.95 999.39 999.19 998.75 998.72 998.82 998.76 998.47 999.08 999.25 999.15 998.91 998.83 1000.34 1000.46 1000.18 998.84 998.67 998.90 999.01 999.20 999.36 999.98 1000.92
1015.54 1013.11 1012.12 1010.66 1011.03 1010.42 1009.58 1007.32 1004.94 1003.17 1001.19 1000.19 999.38 999.42 998.83 998.67 998.68 998.89 999.12 999.10 999.14 999.59 999.40 998.39 997.85 997.34 998.00 998.41 998.74 998.54 999.06 999.25 999.19 999.19 999.83 1001.14 1002.39 1000.45 999.50 999.18 999.02 999.24 999.50 1000.23 1001.04
1015.54 1011.69 1009.28 1009.21 1009.87 1010.10 1008.90 1006.56 1004.34 1002.76 1002.15 1001.40 1000.35 999.78 999.53 998.87 998.48 998.47 998.49 998.67 998.55 998.48 998.98 998.53 998.25 997.40 997.35 998.04 998.35 998.17 998.39 998.96 999.29 999.67 1000.26 1000.40 1001.76 1002.66 1000.82 1000.02 999.91 999.91 1000.32 1001.00 1001.55
1015.09 1010.58 1008.82 1008.92 1009.66 1009.06 1007.37 1005.66 1004.28 1003.11 1003.15 1002.68 1001.80 1001.05 1000.08 998.95 998.24 998.18 998.43 998.07 998.10 997.98 998.11 998.74 998.94 997.94 997.45 997.92 997.86 998.13 998.36 998.71 998.69 999.41 1000.90 1002.99 1004.40 1004.30 1003.66 1001.85 1000.61 1000.62 1001.02 1001.87 1002.09
1012.84 1009.29 1008.53 1008.67 1008.80 1007.80 1006.44 1005.29 1004.37 1003.19 1003.73 1003.45 1002.85 1002.31 1001.11 999.81 999.08 998.35 998.05 997.59 997.54 997.79 997.89 998.70 998.95 998.68 997.86 997.41 997.99 998.06 998.06 998.63 998.94 999.52 1000.52 1002.33 1003.08 1004.18 1002.92 1001.60 1001.29 1001.41 1001.52 1002.08 1002.36
1012.56 1008.67 1008.37 1008.37 1007.41 1006.25 1005.82 1004.73 1004.16 1004.12 1003.94 1003.57 1003.21 1002.83 1001.97 1001.24 1000.58 999.64 998.78 998.57 998.28 998.27 999.06 999.34 999.28 999.09 998.54 997.80 997.47 997.76 997.95 997.98 998.64 999.66 1000.34 1001.54 1002.49 1003.54 1003.67 1002.09 1002.15 1002.37 1002.57 1003.10 1003.10
1012.96 1008.57 1008.25 1008.47 1007.30 1006.51 1005.04 1004.57 1004.62 1004.90 1004.69 1004.08 1003.60 1003.17 1002.86 1002.44 1001.70 1000.97 999.78 999.08 999.55 999.69 1000.12 1000.18 999.39 999.42 998.81 998.16 997.46 997.50 997.88 998.00 998.30 998.75 999.44 1000.35 1002.26 1004.66 1004.86 1005.34 1005.54 1004.06 1003.70 1003.72 1003.91
1012.31 1008.14 1006.92 1006.91 1007.01 1006.46 1005.69 1004.88 1004.74 1004.36 1004.88 1004.72 1004.50 1004.22 1003.76 1003.43 1002.57 1001.80 1000.90 1000.12 999.77 1000.20 1000.45 1000.49 1000.17 1000.03 999.43 998.79 998.14 997.58 997.20 997.40 997.91 998.52 999.32 1000.32 1002.74 1005.27 1006.35 1006.68 1007.79 1007.66 1004.80 1004.30 1004.40
1011.51 1009.28 1007.81 1006.65 1006.79 1006.16 1006.24 1006.16 1005.38 1004.63 1004.35 1004.60 1004.65 1004.12 1004.21 1003.95 1003.30 1002.34 1001.59 1001.28 1000.77 1000.31 1000.56 1000.77 1000.80 1000.86 1000.18 999.61 998.93 997.96 997.23 997.32 997.12 997.67 998.71 1000.34 1003.30 1004.84 1005.87 1006.73 1010.06 1007.89 1005.98 1004.98 1005.06
1011.67 1010.24 1009.40 1007.49 1006.88 1006.66 1005.81 1005.57 1005.50 1005.31 1005.43 1005.20 1004.56 1004.22 1004.03 1003.62 1003.47 1003.01 1002.58 1002.28 1001.97 1001.70 1001.33 1001.10 1001.19 1001.30 1000.69 1000.03 999.24 998.10 997.50 997.03 996.79 997.08 998.18 999.49 1002.25 1004.79 1005.56 1006.58 1006.41 1006.58 1005.87 1005.36 1005.41
Thickness
5757 5762 5767 5771 5777 5781 5786 5791 5795 5800 5806 5812 5819 5824 5828 5835 5846 5854 5858 5872 5875 5879 5880 5887 5888 5889 5892 5877 5881 5871 5822 5815 5820 5847 5863 5884 5869 5881 5883 5861 5860 5864 5852 5849 5845
5752 5757 5763 5768 5774 5778 5783 5790 5795 5799 5806 5812 5819 5824 5827 5833 5850 5858 5875 5878 5878 5877 5876 5877 5876 5884 5873 5880 5872 5846 5810 5830 5866 5891 5884 5885 5881 5877 5868 5857 5848 5847 5853 5851 5845
5748 5753 5757 5764 5770 5775 5781 5788 5793 5798 5806 5813 5820 5826 5829 5834 5845 5859 5876 5877 5880 5878 5880 5886 5891 5885 5872 5886 5842 5828 5824 5858 5878 5903 5896 5858 5872 5892 5859 5852 5855 5842 5843 5845 5840
5744 5751 5756 5762 5768 5774 5779 5785 5792 5799 5806 5813 5821 5828 5831 5841 5821 5869 5876 5877 5879 5879 5878 5879 5878 5869 5868 5868 5889 5851 5880 5900 5903 5904 5899 5869 5882 5887 5882 5871 5876 5864 5855 5847 5838
5739 5746 5753 5761 5768 5773 5778 5785 5790 5796 5803 5811 5818 5824 5839 5837 5850 5875 5875 5876 5878 5878 5871 5873 5870 5871 5860 5879 5884 5892 5899 5906 5907 5903 5906 5906 5889 5879 5876 5884 5880 5868 5857 5847 5842
5734 5742 5750 5759 5766 5771 5777 5784 5791 5796 5804 5810 5814 5818 5828 5820 5886 5880 5879 5879 5875 5878 5878 5881 5878 5888 5876 5879 5879 5898 5898 5905 5908 5900 5898 5886 5842 5838 5838 5885 5871 5862 5856 5853 5846
5730 5737 5746 5753 5762 5771 5778 5784 5792 5798 5806 5810 5812 5816 5828 5837 5883 5887 5884 5880 5889 5884 5875 5890 5890 5876 5884 5882 5911 5898 5880 5895 5900 5902 5892 5881 5826 5806 5813 5842 5864 5859 5859 5856 5850
5725 5733 5741 5749 5758 5768 5777 5785 5792 5799 5805 5809 5809 5818 5824 5881 5882 5879 5881 5880 5888 5889 5883 5893 5893 5877 5873 5896 5893 5879 5885 5833 5872 5894 5903 5892 5811 5849 5850 5843 5858 5859 5859 5854 5850
5719 5728 5737 5747 5756 5765 5776 5787 5795 5800 5804 5807 5812 5820 5824 5875 5860 5876 5883 5870 5882 5884 5886 5889 5878 5864 5874 5861 5859 5875 5847 5838 5842 5884 5894 5885 5832 5849 5845 5841 5861 5864 5859 5852 5847
5713 5723 5732 5742 5751 5762 5775 5794 5801 5800 5808 5811 5820 5810 5842 5843 5869 5874 5885 5879 5867 5870 5865 5862 5856 5844 5855 5854 5829 5809 5810 5817 5825 5864 5887 5875 5863 5871 5865 5840 5876 5873 5865 5854 5847
5708 5718 5728 5738 5747 5755 5771 5795 5797 5791 5803 5813 5823 5828 5845 5861 5871 5861 5875 5867 5863 5854 5833 5854 5833 5825 5847 5867 5877 5835 5814 5800 5840 5867 5874 5872 5881 5893 5893 5896 5890 5878 5870 5863 5856
5701 5711 5723 5733 5744 5754 5757 5777 5792 5795 5786 5827 5836 5842 5856 5857 5837 5854 5877 5843 5841 5825 5845 5839 5828 5856 5869 5876 5877 5871 5831 5838 5858 5883 5877 5876 5880 5898 5899 5893 5898 5891 5860 5866 5863
5694 5705 5717 5729 5742 5758 5773 5786 5801 5805 5781 5813 5836 5838 5843 5848 5833 5846 5862 5850 5838 5829 5835 5829 5852 5873 5863 5865 5861 5862 5857 5863 5867 5887 5886 5874 5865 5881 5885 5895 5898 5896 5888 5880 5869
5687 5699 5710 5723 5736 5766 5771 5793 5799 5802 5763 5803 5822 5838 5845 5848 5829 5864 5872 5851 5840 5829 5840 5840 5866 5860 5858 5850 5859 5842 5873 5872 5867 5863 5840 5876 5814 5868 5858 5855 5882 5886 5888 5884 5873
5681 5690 5702 5706 5729 5749 5775 5787 5791 5788 5731 5830 5828 5861 5851 5831 5845 5845 5873 5853 5829 5835 5838 5834 5845 5847 5838 5846 5861 5847 5876 5868 5871 5856 5851 5854 5822 5860 5858 5829 5881 5885 5886 5890 5877
5675 5685 5695 5720 5721 5751 5768 5778 5777 5742 5735 5804 5822 5815 5815 5829 5832 5850 5845 5856 5855 5835 5845 5842 5870 5861 5857 5862 5866 5872 5861 5859 5862 5852 5820 5847 5849 5840 5802 5833 5876 5881 5880 5884 5875
5674 5681 5687 5708 5731 5757 5761 5756 5730 5726 5800 5799 5805 5818 5814 5815 5820 5829 5821 5817 5809 5796 5804 5832 5838 5857 5863 5845 5863 5856 5843 5806 5802 5810 5811 5863 5851 5861 5871 5876 5877 5872 5874 5877 5874
5672 5680 5702 5714 5735 5743 5743 5729 5709 5761 5778 5826 5821 5826 5807 5820 5819 5820 5815 5806 5825 5823 5816 5805 5804 5842 5860 5848 5844 5839 5839 5815 5791 5807 5799 5827 5804 5845 5878 5883 5885 5882 5882 5879 5870
5676 5700 5706 5723 5723 5732 5721 5707 5727 5761 5801 5804 5814 5796 5807 5824 5826 5819 5815 5815 5828 5830 5803 5816 5823 5870 5861 5862 5856 5842 5822 5855 5831 5844 5827 5798 5807 5853 5872 5870 5873 5871 5874 5868 5867
5669 5701 5719 5727 5725 5717 5707 5709 5746 5783 5782 5787 5773 5798 5784 5807 5814 5816 5814 5830 5828 5846 5846 5832 5806 5855 5863 5864 5860 5851 5868 5822 5831 5794 5790 5832 5818 5790 5830 5849 5856 5857 5856 5858 5860
5669 5696 5719 5725 5719 5706 5699 5725 5750 5772 5768 5763 5767 5774 5789 5805 5821 5813 5810 5834 5841 5843 5854 5837 5819 5829 5856 5834 5833 5839 5831 5839 5848 5840 5796 5757 5770 5805 5798 5818 5849 5853 5854 5849 5852
5682 5687 5718 5722 5693 5707 5709 5732 5739 5755 5759 5759 5769 5769 5777 5799 5800 5807 5812 5831 5855 5850 5832 5838 5821 5801 5824 5860 5859 5850 5842 5839 5814 5811 5824 5780 5793 5824 5818 5844 5853 5849 5849 5850 5852
5670 5697 5714 5713 5689 5708 5722 5733 5738 5738 5746 5750 5752 5766 5779 5775 5768 5793 5811 5831 5838 5834 5818 5827 5808 5786 5801 5833 5854 5835 5843 5851 5844 5833 5808 5791 5796 5831 5828 5848 5847 5840 5841 5839 5844
5663 5681 5691 5692 5704 5703 5715 5720 5720 5737 5735 5746 5749 5761 5757 5757 5775 5772 5793 5819 5822 5821 5814 5819 5812 5797 5788 5811 5842 5825 5832 5841 5836 5815 5821 5826 5819 5794 5794 5786 5806 5827 5833 5834 5835
5667 5686 5700 5683 5687 5698 5709 5717 5715 5719 5732 5738 5733 5739 5742 5735 5752 5760 5783 5795 5812 5808 5810 5808 5783 5799 5812 5825 5831 5832 5832 5835 5823 5827 5811 5829 5805 5782 5783 5783 5779 5782 5828 5826 5826
5662 5672 5691 5695 5696 5698 5683 5692 5704 5720 5726 5722 5723 5740 5741 5732 5745 5749 5771 5777 5780 5801 5793 5804 5776 5788 5786 5811 5816 5816 5834 5831 5836 5835 5833 5829 5790 5801 5794 5788 5753 5782 5814 5817 5817
5666 5676 5672 5680 5688 5686 5695 5700 5701 5710 5717 5727 5730 5733 5735 5744 5756 5766 5768 5773 5776 5772 5773 5781 5777 5771 5761 5798 5803 5790 5818 5830 5838 5846 5834 5819 5808 5796 5790 5782 5785 5795 5810 5813 5815